This is the latest recevied weather packets stored in our database for station/object W4KUS-10. If no packets are shown the sender has not sent any weather packets the latest 10 day(s).
| Time | Temp. | Humidity | Pressure | Rain* | Wind** | Luminosity | Snow |
|---|---|---|---|---|---|---|---|
| 1777384540 | 18.33° C | 69% | 1022.6 hPa | 0 mm | - | - | - |
| 1777384240 | 17.78° C | 69% | 1022.6 hPa | 0 mm | - | - | - |
| 1777383940 | 17.78° C | 69% | 1022.6 hPa | 0 mm | - | - | - |
| 1777383640 | 17.22° C | 71% | 1022.8 hPa | 0 mm | - | - | - |
| 1777383340 | 17.22° C | 72% | 1022.8 hPa | 0 mm | - | - | - |
| 1777383040 | 16.67° C | 74% | 1022.8 hPa | 0 mm | - | - | - |
| 1777382740 | 16.67° C | 74% | 1022.9 hPa | 0 mm | - | - | - |
| 1777382440 | 16.11° C | 76% | 1022.8 hPa | 0 mm | - | - | - |
| 1777382140 | 15.56° C | 77% | 1022.8 hPa | 0 mm | - | - | - |
| 1777381840 | 15.56° C | 79% | 1022.6 hPa | 0 mm | - | - | - |
| 1777381540 | 15° C | 79% | 1022.4 hPa | 0 mm | - | - | - |
| 1777381217 | 14.44° C | 81% | 1022.2 hPa | 0 mm | - | - | - |
| 1777380940 | 13.89° C | 82% | 1022.2 hPa | 0 mm | - | - | - |
| 1777380640 | 13.33° C | 82% | 1022.2 hPa | 0 mm | - | - | - |
| 1777380340 | 13.33° C | 84% | 1022.1 hPa | 0 mm | - | - | - |
| 1777380040 | 12.78° C | 84% | 1022.1 hPa | 0 mm | - | - | - |
| 1777379740 | 12.22° C | 85% | 1022.1 hPa | 0 mm | - | - | - |
| 1777379417 | 11.67° C | 86% | 1022 hPa | 0 mm | - | - | - |
| 1777379140 | 11.67° C | 87% | 1021.9 hPa | 0 mm | - | - | - |
| 1777378840 | 11.11° C | 88% | 1021.8 hPa | 0 mm | - | - | - |
| 1777378518 | 10.56° C | 89% | 1021.8 hPa | 0 mm | - | - | - |
| 1777378240 | 10° C | 91% | 1021.7 hPa | 0 mm | - | - | - |
| 1777377940 | 10° C | 91% | 1021.5 hPa | 0 mm | - | - | - |
| 1777377640 | 9.44° C | 92% | 1021.3 hPa | 0 mm | - | - | - |
| 1777377340 | 8.89° C | 93% | 1021.3 hPa | 0 mm | - | - | - |
* Rain latest hour (hover to see other rain measurements)
** Current wind speed in m/s (hover to see current wind gust speed)